Location: Unspecified
(0.0000°N, 0.0000°E)
Time: 00:07:35
(UTC+00:00)

ISS - Pass Details

Date: 16 February 2020
Orbit: 415 x 422 km, 51.6° (Epoch: 27 February)

Event Time Altitude Azimuth Distance (km) Brightness Sun altitude
Rises 05:24:50 0° 208° (SSW) 2,353 -0.1 -12.0°
Reaches altitude 10° 05:26:58 10° 202° (SSW) 1,489 -1.1 -11.5°
Maximum altitude 05:30:14 50° 125° (SE) 535 -2.8 -10.7°
Drops below altitude 10° 05:33:29 10° 49° (NE) 1,487 -0.4 -9.9°
Sets 05:35:36 0° 43° (NE) 2,349 0.5 -9.4°
